Terminal Aerodrome Forecast
Issued by NWS Tampa Bay Area, FL

Home | Current Version | Previous Version | Text Only | Print | Product List | Glossary On
Versions: 1 2 3 4 5 6 7 8 9 10 11 12 13 14 15 16 17 18 19 20 21 22 23 24 25
000
FTUS42 KTBW 201732
TAFTPA
TAF
KTPA 201732Z 2018/2124 24008KT P6SM SCT040
     FM202000 28010KT P6SM SCT040 SCT250
     FM202300 35010KT P6SM SCT030 SCT250
     FM210400 04006KT P6SM FEW015 BKN030
     FM211400 09010KT P6SM SCT050=

USA.gov is the U.S. government's official web portal to all federal, state and local government web resources and services.